Weather History for Columbus, OH

Change the Weather History Date:

Friday, June 28, 2013

  Actual Average Record
Temperature  
Mean Temperature 76 °F 74 °F  
Max Temperature 83 °F 84 °F 102 °F (1944)
Min Temperature 68 °F 65 °F 48 °F (1950)
Degree Days  
Heating Degree Days 0 0  
Month to date heating degree days 6 18  
Since 1 June heating degree days 6 18  
Since 1 July heating degree days 5160 5245  
Cooling Degree Days 11 10  
Month to date cooling degree days 224 196  
Year to date cooling degree days 385 278  
Since 1 June cooling degree days 224 196  
Growing Degree Days 26 (Base 50)    
Moisture  
Dew Point 64 °F    
Average Humidity 66    
Maximum Humidity 84    
Minimum Humidity 47    
Precipitation  
Precipitation 0.04 in 0.13 in 2.50 in (1902)
Month to date precipitation 4.20 3.76  
Year to date precipitation 16.67 19.33  
Snow  
Snow 0.00 in 0.00 in 0.00 in ()
Month to date snowfall 0.0 0.0  
Since 1 June snowfall 0.0 0.0  
Since 1 July snowfall 41.2 26.7  
Snow Depth 0.00 in    
Sea Level Pressure  
Sea Level Pressure 29.59 in    
Wind  
Wind Speed 7 mph (West)    
Max Wind Speed 38 mph    
Max Gust Speed 43 mph    
Visibility 10 miles    
Events Rain , Thunderstorm    
T = Trace of Precipitation, MM = Missing Value Source: NWS Daily Summary

Daily Weather History Graph

Daily Weather History Graph

Search for Another Location

Airport:

Trip Planner

Search our weather history database for the weather conditions in past years. The results will help you decide how hot, cold, wet, or windy it might be!

Date:

Astronomy

Jun. 28, 2013 Rise Set
Actual Time 6:05 AM EDT 9:04 PM EDT
Civil Twilight 5:32 AM EDT 9:37 PM EDT
Nautical Twilight 4:50 AM EDT 10:18 PM EDT
Astronomical Twilight 4:02 AM EDT 11:07 PM EDT
Moon 12:01 AM EDT (6/28) 12:11 PM EDT (6/28)
Length of Visible Light 16h 04m
Length of Day
14h 59m
Waning Gibbous, 66% of the Moon is Illuminated
Jun 28
Waning Gibbous
Jun 30
Last Quarter
Jul 8
New
Jul 15
First Quarter
Jul 22
Full

Hourly Weather History & Observations

Time (EDT) Temp. Heat Index Dew Point Humidity Pressure Visibility Wind Dir Wind Speed Gust Speed Precip Events Conditions
12:51 AM 73.0 °F - 68.0 °F 84% 29.65 in 10.0 mi East 3.5 mph - N/A   Mostly Cloudy
1:51 AM 73.9 °F - 69.1 °F 85% 29.64 in 10.0 mi South 4.6 mph - 0.00 in Rain Light Rain
2:51 AM 75.0 °F - 69.1 °F 82% 29.63 in 10.0 mi WSW 6.9 mph - 0.00 in   Overcast
3:51 AM 75.0 °F - 66.9 °F 76% 29.62 in 10.0 mi SW 3.5 mph - N/A   Overcast
4:51 AM 73.9 °F - 66.0 °F 76% 29.60 in 10.0 mi SSW 6.9 mph - N/A   Overcast
5:51 AM 73.0 °F - 66.0 °F 79% 29.61 in 10.0 mi SSW 3.5 mph - N/A   Mostly Cloudy
6:51 AM 73.0 °F - 66.9 °F 81% 29.60 in 10.0 mi West 5.8 mph - N/A   Scattered Clouds
7:51 AM 73.0 °F - 66.9 °F 81% 29.60 in 10.0 mi West 10.4 mph - N/A   Scattered Clouds
8:51 AM 75.0 °F - 66.9 °F 76% 29.60 in 10.0 mi WNW 6.9 mph - N/A   Scattered Clouds
9:51 AM 77.0 °F - 68.0 °F 74% 29.60 in 10.0 mi WNW 6.9 mph - N/A   Scattered Clouds
10:51 AM 79.0 °F - 66.0 °F 64% 29.59 in 10.0 mi West 12.7 mph - N/A   Scattered Clouds
11:51 AM 82.0 °F 84.5 °F 66.9 °F 60% 29.58 in 10.0 mi West 13.8 mph - N/A   Scattered Clouds
12:51 PM 82.0 °F 83.1 °F 63.0 °F 52% 29.57 in 10.0 mi WNW 9.2 mph 19.6 mph N/A   Mostly Cloudy
1:28 PM 71.6 °F - 62.6 °F 73% 29.60 in 6.0 mi WSW 33.4 mph 41.4 mph 0.00 in Rain , Thunderstorm Light Thunderstorms and Rain
1:51 PM 75.0 °F - 64.9 °F 71% 29.58 in 10.0 mi WSW 12.7 mph - 0.03 in   Mostly Cloudy
2:07 PM 75.2 °F - 64.4 °F 69% 29.62 in 10.0 mi NW 15.0 mph 28.8 mph N/A   Mostly Cloudy
2:21 PM 73.4 °F - 62.6 °F 69% 29.62 in 10.0 mi NNW 12.7 mph - 0.00 in Rain Light Rain
2:51 PM 73.0 °F - 64.0 °F 73% 29.57 in 10.0 mi Calm Calm - 0.01 in   Mostly Cloudy
3:51 PM 81.0 °F 82.7 °F 64.9 °F 58% 29.55 in 10.0 mi Calm Calm - N/A   Scattered Clouds
4:51 PM 82.0 °F 82.7 °F 61.0 °F 49% 29.53 in 10.0 mi WNW 13.8 mph - N/A   Mostly Cloudy
5:51 PM 82.0 °F 82.4 °F 60.1 °F 47% 29.54 in 10.0 mi WNW 17.3 mph 28.8 mph N/A   Mostly Cloudy
6:51 PM 77.0 °F - 57.9 °F 52% 29.56 in 10.0 mi NW 12.7 mph 21.9 mph N/A   Mostly Cloudy
7:51 PM 77.0 °F - 55.9 °F 48% 29.58 in 10.0 mi NW 10.4 mph - N/A   Mostly Cloudy
8:51 PM 73.0 °F - 60.1 °F 64% 29.58 in 10.0 mi NNE 4.6 mph - N/A   Mostly Cloudy
9:51 PM 72.0 °F - 60.1 °F 66% 29.60 in 10.0 mi Calm Calm - N/A   Mostly Cloudy
10:51 PM 71.1 °F - 60.1 °F 68% 29.59 in 10.0 mi WSW 4.6 mph - N/A   Scattered Clouds
11:51 PM 69.1 °F - 60.1 °F 73% 29.58 in 10.0 mi WSW 3.5 mph - N/A   Partly Cloudy